QPF
0.05 0.05 0.05 0.06 0.04 0.04 0.05 0.07 0.07 0.07 0.06 0.04 0.03 0.02 0.02 0.03 0.02 0.01 0.02 0.02 0.01 0.01 0.02 0.03 0.04 0.05 0.06 0.07 0.06 0.05 0.06 0.09 0.10 0.08 0.08 0.08 0.08 0.07 0.07 0.07 0.06 0.04 0.03
0.03 0.03 0.04 0.04 0.04 0.03 0.05 0.06 0.05 0.06 0.06 0.05 0.05 0.04 0.04 0.04 0.03 0.02 0.02 0.03 0.01 0.01 0.01 0.02 0.03 0.04 0.04 0.05 0.06 0.06 0.07 0.09 0.10 0.10 0.10 0.08 0.08 0.08 0.07 0.07 0.06 0.05 0.04
0.03 0.03 0.03 0.03 0.05 0.04 0.06 0.06 0.06 0.06 0.05 0.05 0.05 0.04 0.04 0.05 0.04 0.04 0.03 0.03 0.02 0.01 0.01 0.01 0.02 0.03 0.04 0.05 0.07 0.08 0.08 0.08 0.09 0.07 0.05 0.05 0.09 0.11 0.10 0.08 0.05 0.04 0.04
0.03 0.05 0.05 0.05 0.06 0.05 0.06 0.07 0.08 0.09 0.09 0.08 0.08 0.06 0.06 0.05 0.05 0.04 0.03 0.03 0.03 0.02 0.02 0.02 0.02 0.03 0.04 0.05 0.08 0.10 0.09 0.09 0.09 0.07 0.06 0.05 0.05 0.07 0.10 0.09 0.06 0.05 0.04
0.04 0.06 0.07 0.08 0.07 0.06 0.05 0.04 0.07 0.08 0.08 0.09 0.08 0.07 0.06 0.05 0.05 0.03 0.03 0.02 0.02 0.03 0.03 0.03 0.02 0.03 0.03 0.05 0.06 0.08 0.10 0.09 0.09 0.08 0.07 0.07 0.07 0.07 0.08 0.07 0.06 0.05 0.04
0.04 0.07 0.07 0.06 0.05 0.05 0.07 0.07 0.08 0.07 0.06 0.06 0.04 0.04 0.05 0.05 0.05 0.04 0.03 0.02 0.02 0.02 0.02 0.03 0.04 0.03 0.03 0.04 0.05 0.09 0.12 0.08 0.08 0.09 0.08 0.08 0.09 0.09 0.09 0.09 0.08 0.06 0.06
0.03 0.07 0.06 0.06 0.06 0.06 0.06 0.05 0.05 0.05 0.05 0.04 0.03 0.04 0.04 0.03 0.03 0.04 0.03 0.02 0.02 0.01 0.02 0.02 0.02 0.03 0.03 0.04 0.04 0.06 0.08 0.08 0.08 0.10 0.11 0.11 0.10 0.09 0.08 0.07 0.07 0.08 0.08
0.04 0.05 0.07 0.06 0.05 0.06 0.06 0.05 0.05 0.06 0.05 0.03 0.04 0.04 0.04 0.03 0.02 0.02 0.03 0.02 0.01 0.01 0.02 0.01 0.01 0.02 0.03 0.04 0.04 0.02 0.03 0.05 0.05 0.07 0.10 0.11 0.11 0.10 0.09 0.06 0.05 0.07 0.08
0.04 0.04 0.05 0.05 0.05 0.04 0.04 0.05 0.05 0.06 0.06 0.04 0.05 0.06 0.05 0.05 0.04 0.02 0.02 0.02 0.02 0.01 0.01 0.00 0.01 0.02 0.03 0.05 0.05 0.03 0.03 0.03 0.04 0.05 0.05 0.07 0.09 0.09 0.08 0.07 0.05 0.06 0.06
0.03 0.04 0.05 0.05 0.05 0.04 0.04 0.05 0.08 0.08 0.07 0.07 0.05 0.03 0.04 0.04 0.03 0.03 0.03 0.02 0.02 0.01 0.01 0.00 0.00 0.01 0.02 0.03 0.04 0.03 0.03 0.02 0.03 0.04 0.03 0.03 0.05 0.08 0.07 0.07 0.07 0.06 0.06
0.03 0.04 0.05 0.05 0.05 0.05 0.05 0.05 0.08 0.05 0.05 0.07 0.06 0.05 0.05 0.04 0.03 0.03 0.03 0.03 0.02 0.01 0.01 0.01 0.01 0.01 0.01 0.01 0.04 0.03 0.02 0.02 0.02 0.03 0.02 0.02 0.03 0.05 0.08 0.08 0.06 0.07 0.06
0.03 0.03 0.03 0.04 0.04 0.05 0.05 0.05 0.04 0.03 0.03 0.05 0.05 0.06 0.06 0.05 0.06 0.05 0.03 0.03 0.03 0.02 0.02 0.02 0.01 0.00 0.00 0.01 0.01 0.01 0.01 0.01 0.01 0.02 0.02 0.02 0.02 0.02 0.04 0.10 0.10 0.06 0.05
0.03 0.03 0.02 0.03 0.04 0.06 0.06 0.05 0.04 0.03 0.03 0.04 0.04 0.05 0.06 0.05 0.06 0.06 0.05 0.03 0.03 0.02 0.02 0.01 0.00 0.00 0.00 0.00 0.01 0.01 0.01 0.01 0.01 0.01 0.01 0.01 0.02 0.02 0.02 0.03 0.09 0.11 0.07
0.03 0.03 0.03 0.04 0.06 0.08 0.07 0.06 0.05 0.04 0.03 0.04 0.03 0.05 0.06 0.04 0.05 0.06 0.06 0.06 0.05 0.03 0.02 0.02 0.01 0.01 0.01 0.00 0.01 0.01 0.01 0.01 0.01 0.00 0.00 0.01 0.01 0.01 0.01 0.02 0.04 0.08 0.10
0.04 0.05 0.06 0.06 0.07 0.08 0.07 0.05 0.04 0.04 0.04 0.04 0.03 0.04 0.04 0.04 0.04 0.06 0.06 0.07 0.06 0.04 0.04 0.04 0.03 0.02 0.01 0.01 0.01 0.02 0.02 0.01 0.01 0.00 0.00 0.00 0.00 0.01 0.01 0.01 0.02 0.05 0.07
0.05 0.06 0.07 0.07 0.07 0.07 0.06 0.05 0.04 0.03 0.03 0.04 0.03 0.04 0.04 0.03 0.04 0.04 0.05 0.05 0.05 0.05 0.05 0.04 0.03 0.03 0.02 0.01 0.02 0.02 0.01 0.01 0.01 0.01 0.00 0.00 0.01 0.01 0.01 0.01 0.01 0.02 0.04
0.05 0.05 0.05 0.05 0.05 0.06 0.07 0.06 0.05 0.04 0.03 0.04 0.04 0.04 0.05 0.04 0.04 0.03 0.03 0.04 0.04 0.04 0.05 0.05 0.03 0.03 0.04 0.03 0.02 0.02 0.01 0.01 0.01 0.01 0.00 0.00 0.00 0.00 0.00 0.01 0.01 0.01 0.01
0.04 0.04 0.04 0.05 0.06 0.07 0.09 0.10 0.08 0.07 0.06 0.07 0.08 0.07 0.05 0.04 0.04 0.03 0.02 0.02 0.03 0.03 0.03 0.04 0.03 0.03 0.03 0.03 0.03 0.03 0.02 0.01 0.01 0.01 0.00 0.00 0.00 0.00 0.01 0.01 0.01 0.01 0.01
0.05 0.05 0.04 0.06 0.07 0.09 0.10 0.11 0.12 0.10 0.10 0.09 0.08 0.06 0.04 0.04 0.03 0.02 0.02 0.02 0.03 0.03 0.04 0.03 0.03 0.02 0.03 0.02 0.02 0.01 0.01 0.01 0.01 0.01 0.01 0.01 0.01 0.01 0.01 0.01 0.01 0.01 0.01
0.04 0.04 0.05 0.05 0.05 0.05 0.06 0.05 0.05 0.05 0.06 0.07 0.06 0.05 0.04 0.04 0.03 0.03 0.02 0.03 0.03 0.03 0.04 0.03 0.03 0.03 0.02 0.02 0.02 0.02 0.02 0.01 0.01 0.01 0.01 0.01 0.01 0.01 0.00 0.01 0.01 0.01 0.01
0.03 0.05 0.06 0.06 0.05 0.05 0.04 0.05 0.06 0.05 0.04 0.04 0.04 0.04 0.02 0.03 0.03 0.03 0.02 0.02 0.03 0.03 0.04 0.04 0.03 0.03 0.02 0.02 0.02 0.03 0.03 0.02 0.01 0.01 0.01 0.01 0.01 0.01 0.01 0.01 0.00 0.01 0.01
0.02 0.03 0.03 0.06 0.05 0.03 0.04 0.05 0.05 0.07 0.08 0.06 0.05 0.04 0.03 0.02 0.02 0.02 0.02 0.02 0.03 0.03 0.04 0.03 0.03 0.03 0.02 0.03 0.04 0.03 0.03 0.03 0.02 0.01 0.01 0.01 0.01 0.02 0.02 0.01 0.01 0.00 0.01
0.03 0.04 0.04 0.05 0.06 0.06 0.04 0.04 0.04 0.05 0.06 0.06 0.06 0.05 0.03 0.03 0.04 0.03 0.02 0.02 0.02 0.02 0.02 0.03 0.03 0.04 0.04 0.04 0.05 0.04 0.03 0.03 0.03 0.01 0.02 0.01 0.01 0.01 0.01 0.01 0.01 0.00 0.00
0.05 0.05 0.04 0.05 0.05 0.04 0.04 0.03 0.03 0.04 0.04 0.05 0.04 0.04 0.04 0.04 0.04 0.04 0.03 0.03 0.02 0.02 0.02 0.02 0.03 0.04 0.05 0.06 0.06 0.04 0.05 0.04 0.03 0.02 0.03 0.02 0.02 0.02 0.01 0.01 0.01 0.01 0.01
0.03 0.03 0.02 0.02 0.02 0.02 0.03 0.04 0.04 0.05 0.05 0.04 0.03 0.03 0.03 0.04 0.04 0.03 0.04 0.04 0.05 0.04 0.02 0.02 0.02 0.03 0.03 0.04 0.04 0.03 0.03 0.03 0.02 0.02 0.03 0.03 0.02 0.02 0.02 0.02 0.01 0.01 0.01
0.03 0.02 0.01 0.01 0.02 0.03 0.03 0.03 0.03 0.04 0.04 0.04 0.03 0.02 0.02 0.02 0.03 0.03 0.03 0.04 0.05 0.05 0.03 0.02 0.01 0.01 0.03 0.03 0.03 0.02 0.02 0.02 0.02 0.02 0.02 0.03 0.03 0.04 0.04 0.03 0.02 0.02 0.02
MSLP
1016.67 1016.57 1016.43 1016.25 1016.06 1015.88 1015.72 1015.58 1015.44 1015.29 1015.11 1014.88 1014.61 1014.34 1014.09 1013.93 1013.89 1013.99 1014.23 1014.58 1014.99 1015.41 1015.79 1016.08 1016.28 1016.37 1016.40 1016.39 1016.38 1016.39 1016.44 1016.52 1016.64 1016.76 1016.87 1016.97 1017.05 1017.12 1017.19 1017.26 1017.35 1017.45 1017.56
1016.88 1016.76 1016.59 1016.39 1016.17 1015.98 1015.80 1015.64 1015.49 1015.33 1015.13 1014.88 1014.59 1014.29 1014.01 1013.79 1013.68 1013.72 1013.88 1014.17 1014.53 1014.92 1015.29 1015.59 1015.80 1015.94 1016.00 1016.02 1016.02 1016.04 1016.09 1016.16 1016.25 1016.35 1016.44 1016.52 1016.58 1016.64 1016.70 1016.78 1016.88 1016.99 1017.12
1017.03 1016.88 1016.69 1016.47 1016.25 1016.04 1015.85 1015.68 1015.52 1015.35 1015.14 1014.89 1014.59 1014.27 1013.96 1013.71 1013.54 1013.50 1013.59 1013.79 1014.08 1014.41 1014.74 1015.03 1015.25 1015.41 1015.50 1015.55 1015.58 1015.61 1015.66 1015.72 1015.79 1015.86 1015.93 1015.98 1016.03 1016.07 1016.13 1016.21 1016.31 1016.44 1016.58
1017.08 1016.91 1016.71 1016.49 1016.26 1016.05 1015.86 1015.68 1015.52 1015.35 1015.14 1014.90 1014.60 1014.29 1013.96 1013.68 1013.46 1013.35 1013.36 1013.47 1013.67 1013.92 1014.18 1014.43 1014.63 1014.78 1014.88 1014.95 1015.01 1015.06 1015.11 1015.17 1015.22 1015.28 1015.32 1015.35 1015.37 1015.40 1015.44 1015.51 1015.62 1015.76 1015.92
1017.03 1016.85 1016.65 1016.44 1016.23 1016.02 1015.83 1015.66 1015.50 1015.33 1015.13 1014.90 1014.62 1014.32 1014.00 1013.70 1013.46 1013.29 1013.21 1013.22 1013.31 1013.46 1013.63 1013.79 1013.95 1014.07 1014.16 1014.23 1014.30 1014.36 1014.42 1014.48 1014.53 1014.57 1014.59 1014.60 1014.60 1014.61 1014.63 1014.70 1014.80 1014.94 1015.11
1016.89 1016.72 1016.54 1016.35 1016.16 1015.97 1015.80 1015.63 1015.47 1015.30 1015.11 1014.89 1014.64 1014.36 1014.07 1013.77 1013.51 1013.29 1013.14 1013.05 1013.02 1013.04 1013.09 1013.16 1013.22 1013.28 1013.34 1013.40 1013.46 1013.52 1013.59 1013.66 1013.71 1013.75 1013.76 1013.75 1013.74 1013.72 1013.73 1013.78 1013.86 1013.99 1014.16
1016.69 1016.55 1016.40 1016.25 1016.09 1015.93 1015.77 1015.61 1015.45 1015.28 1015.10 1014.90 1014.67 1014.42 1014.15 1013.88 1013.60 1013.35 1013.13 1012.95 1012.80 1012.68 1012.60 1012.53 1012.49 1012.46 1012.46 1012.49 1012.53 1012.60 1012.68 1012.75 1012.82 1012.86 1012.87 1012.86 1012.83 1012.80 1012.78 1012.80 1012.86 1012.97 1013.12
1016.49 1016.37 1016.27 1016.16 1016.05 1015.92 1015.78 1015.62 1015.46 1015.29 1015.11 1014.92 1014.71 1014.49 1014.24 1013.99 1013.72 1013.44 1013.16 1012.88 1012.61 1012.36 1012.14 1011.94 1011.77 1011.65 1011.58 1011.55 1011.58 1011.64 1011.73 1011.82 1011.90 1011.96 1011.98 1011.97 1011.93 1011.88 1011.85 1011.83 1011.86 1011.94 1012.06
1016.30 1016.23 1016.17 1016.11 1016.04 1015.94 1015.82 1015.66 1015.49 1015.31 1015.12 1014.93 1014.73 1014.53 1014.31 1014.07 1013.81 1013.51 1013.18 1012.82 1012.45 1012.08 1011.71 1011.38 1011.10 1010.88 1010.73 1010.66 1010.66 1010.71 1010.81 1010.92 1011.02 1011.09 1011.13 1011.12 1011.09 1011.03 1010.97 1010.93 1010.92 1010.95 1011.02
1016.15 1016.12 1016.10 1016.09 1016.05 1015.97 1015.86 1015.70 1015.51 1015.31 1015.10 1014.90 1014.71 1014.52 1014.32 1014.09 1013.83 1013.52 1013.15 1012.73 1012.28 1011.80 1011.32 1010.88 1010.49 1010.18 1009.96 1009.84 1009.81 1009.86 1009.96 1010.08 1010.19 1010.28 1010.34 1010.34 1010.31 1010.24 1010.16 1010.09 1010.05 1010.04 1010.06
1016.02 1016.01 1016.03 1016.04 1016.03 1015.97 1015.85 1015.68 1015.47 1015.24 1015.01 1014.80 1014.60 1014.41 1014.22 1014.01 1013.75 1013.43 1013.04 1012.58 1012.06 1011.51 1010.95 1010.42 1009.95 1009.57 1009.30 1009.14 1009.08 1009.10 1009.19 1009.31 1009.43 1009.52 1009.58 1009.59 1009.56 1009.50 1009.41 1009.32 1009.25 1009.20 1009.18
1015.86 1015.88 1015.91 1015.94 1015.93 1015.86 1015.73 1015.54 1015.30 1015.05 1014.79 1014.56 1014.35 1014.17 1013.99 1013.79 1013.55 1013.23 1012.83 1012.35 1011.80 1011.20 1010.59 1010.01 1009.49 1009.06 1008.74 1008.54 1008.44 1008.44 1008.50 1008.60 1008.70 1008.78 1008.83 1008.84 1008.81 1008.74 1008.66 1008.56 1008.47 1008.40 1008.35
1015.63 1015.66 1015.70 1015.72 1015.70 1015.61 1015.46 1015.24 1014.98 1014.69 1014.42 1014.17 1013.96 1013.78 1013.61 1013.43 1013.21 1012.91 1012.52 1012.04 1011.48 1010.87 1010.25 1009.64 1009.09 1008.63 1008.28 1008.04 1007.90 1007.85 1007.87 1007.92 1007.98 1008.03 1008.05 1008.04 1007.99 1007.93 1007.84 1007.76 1007.67 1007.59 1007.53
1015.31 1015.33 1015.36 1015.36 1015.32 1015.21 1015.02 1014.78 1014.49 1014.18 1013.90 1013.64 1013.44 1013.27 1013.12 1012.96 1012.77 1012.50 1012.14 1011.68 1011.15 1010.55 1009.93 1009.32 1008.77 1008.29 1007.91 1007.64 1007.45 1007.34 1007.29 1007.27 1007.26 1007.24 1007.20 1007.15 1007.09 1007.01 1006.94 1006.86 1006.79 1006.73 1006.68
1014.87 1014.89 1014.90 1014.88 1014.80 1014.66 1014.45 1014.18 1013.87 1013.56 1013.27 1013.02 1012.83 1012.68 1012.56 1012.44 1012.28 1012.06 1011.74 1011.32 1010.83 1010.26 1009.67 1009.08 1008.53 1008.05 1007.65 1007.34 1007.10 1006.91 1006.77 1006.66 1006.55 1006.44 1006.32 1006.21 1006.10 1006.01 1005.93 1005.87 1005.82 1005.79 1005.77
1014.33 1014.34 1014.34 1014.30 1014.21 1014.04 1013.82 1013.53 1013.21 1012.90 1012.61 1012.38 1012.21 1012.09 1012.01 1011.93 1011.82 1011.64 1011.38 1011.02 1010.57 1010.05 1009.49 1008.94 1008.41 1007.93 1007.51 1007.15 1006.85 1006.59 1006.35 1006.12 1005.90 1005.67 1005.46 1005.26 1005.09 1004.95 1004.86 1004.80 1004.78 1004.78 1004.80
1013.72 1013.74 1013.74 1013.70 1013.60 1013.43 1013.20 1012.91 1012.60 1012.29 1012.02 1011.81 1011.66 1011.58 1011.54 1011.51 1011.45 1011.32 1011.11 1010.80 1010.40 1009.94 1009.43 1008.91 1008.40 1007.93 1007.50 1007.10 1006.74 1006.40 1006.06 1005.72 1005.37 1005.02 1004.69 1004.39 1004.13 1003.93 1003.79 1003.72 1003.71 1003.74 1003.80
1013.10 1013.14 1013.16 1013.14 1013.06 1012.91 1012.68 1012.41 1012.10 1011.81 1011.55 1011.36 1011.25 1011.19 1011.19 1011.20 1011.18 1011.10 1010.94 1010.68 1010.34 1009.93 1009.46 1008.98 1008.50 1008.04 1007.60 1007.18 1006.78 1006.37 1005.94 1005.49 1005.03 1004.55 1004.09 1003.67 1003.30 1003.02 1002.82 1002.71 1002.68 1002.72 1002.80
1012.50 1012.59 1012.66 1012.68 1012.64 1012.51 1012.32 1012.06 1011.77 1011.49 1011.25 1011.07 1010.97 1010.94 1010.96 1011.00 1011.01 1010.98 1010.86 1010.65 1010.35 1009.98 1009.56 1009.11 1008.66 1008.22 1007.79 1007.37 1006.93 1006.47 1005.98 1005.45 1004.88 1004.29 1003.70 1003.16 1002.67 1002.28 1001.98 1001.81 1001.73 1001.75 1001.83
1011.97 1012.13 1012.26 1012.34 1012.35 1012.27 1012.10 1011.87 1011.59 1011.32 1011.08 1010.90 1010.81 1010.78 1010.81 1010.87 1010.90 1010.89 1010.81 1010.64 1010.38 1010.05 1009.67 1009.26 1008.84 1008.42 1008.01 1007.59 1007.15 1006.67 1006.14 1005.54 1004.90 1004.21 1003.52 1002.85 1002.24 1001.73 1001.32 1001.05 1000.90 1000.87 1000.93
1011.52 1011.75 1011.96 1012.10 1012.17 1012.13 1012.00 1011.78 1011.52 1011.24 1010.99 1010.81 1010.70 1010.66 1010.69 1010.74 1010.79 1010.79 1010.73 1010.58 1010.35 1010.05 1009.71 1009.33 1008.95 1008.56 1008.18 1007.78 1007.36 1006.88 1006.34 1005.71 1005.02 1004.26 1003.48 1002.71 1001.98 1001.34 1000.82 1000.44 1000.20 1000.09 1000.10
1011.15 1011.46 1011.73 1011.94 1012.06 1012.06 1011.95 1011.75 1011.48 1011.19 1010.92 1010.71 1010.57 1010.51 1010.52 1010.56 1010.60 1010.60 1010.54 1010.41 1010.20 1009.93 1009.61 1009.26 1008.91 1008.56 1008.21 1007.85 1007.46 1007.00 1006.47 1005.85 1005.13 1004.34 1003.50 1002.64 1001.82 1001.07 1000.44 999.94 999.59 999.40 999.34
1010.86 1011.23 1011.56 1011.82 1011.97 1011.99 1011.89 1011.69 1011.41 1011.10 1010.80 1010.55 1010.38 1010.29 1010.26 1010.28 1010.30 1010.29 1010.22 1010.09 1009.89 1009.63 1009.33 1009.00 1008.68 1008.36 1008.05 1007.73 1007.37 1006.96 1006.46 1005.86 1005.15 1004.35 1003.48 1002.58 1001.69 1000.85 1000.12 999.52 999.08 998.79 998.64
1010.64 1011.05 1011.41 1011.69 1011.85 1011.88 1011.78 1011.56 1011.27 1010.93 1010.60 1010.32 1010.12 1009.98 1009.92 1009.89 1009.88 1009.85 1009.77 1009.62 1009.41 1009.15 1008.85 1008.54 1008.23 1007.94 1007.66 1007.37 1007.06 1006.69 1006.23 1005.68 1005.00 1004.22 1003.35 1002.43 1001.51 1000.63 999.83 999.16 998.63 998.25 998.02
1010.50 1010.91 1011.27 1011.55 1011.71 1011.73 1011.61 1011.38 1011.07 1010.71 1010.36 1010.04 1009.80 1009.63 1009.52 1009.45 1009.40 1009.32 1009.21 1009.03 1008.80 1008.52 1008.22 1007.91 1007.61 1007.33 1007.07 1006.81 1006.53 1006.21 1005.80 1005.29 1004.66 1003.92 1003.09 1002.19 1001.27 1000.38 999.55 998.83 998.24 997.79 997.48
1010.42 1010.82 1011.16 1011.41 1011.54 1011.54 1011.41 1011.17 1010.84 1010.47 1010.10 1009.77 1009.49 1009.28 1009.13 1009.01 1008.90 1008.78 1008.61 1008.39 1008.13 1007.82 1007.50 1007.18 1006.87 1006.60 1006.35 1006.11 1005.86 1005.57 1005.21 1004.75 1004.17 1003.49 1002.71 1001.86 1000.98 1000.11 999.29 998.55 997.93 997.42 997.04
Thickness
5775 5774 5772 5772 5773 5772 5771 5769 5768 5767 5767 5767 5767 5767 5767 5767 5767 5766 5763 5759 5756 5754 5753 5751 5750 5748 5746 5745 5744 5743 5741 5740 5739 5737 5736 5734 5733 5732 5731 5731 5730 5729 5728
5775 5774 5772 5772 5772 5771 5771 5769 5769 5767 5768 5767 5767 5767 5766 5767 5766 5764 5764 5761 5757 5755 5753 5751 5749 5748 5747 5746 5745 5743 5742 5740 5739 5738 5737 5735 5734 5733 5733 5731 5730 5729 5728
5774 5773 5773 5772 5772 5770 5769 5768 5769 5769 5768 5768 5767 5767 5767 5766 5766 5764 5763 5762 5760 5756 5754 5752 5750 5748 5747 5746 5745 5744 5742 5741 5739 5739 5737 5736 5735 5734 5733 5732 5730 5729 5728
5774 5772 5773 5773 5771 5770 5770 5769 5768 5768 5768 5767 5767 5768 5768 5766 5765 5764 5763 5761 5760 5759 5755 5752 5750 5748 5747 5746 5745 5744 5743 5741 5740 5738 5737 5736 5735 5734 5733 5732 5730 5729 5728
5774 5773 5773 5771 5770 5771 5771 5771 5770 5768 5767 5766 5767 5767 5768 5767 5765 5765 5763 5761 5759 5757 5756 5753 5750 5748 5747 5746 5744 5743 5742 5741 5740 5739 5738 5736 5735 5734 5733 5731 5730 5729 5729
5774 5773 5773 5771 5771 5771 5770 5769 5767 5766 5766 5765 5768 5767 5767 5767 5766 5764 5763 5762 5759 5758 5757 5755 5752 5751 5747 5746 5744 5743 5742 5741 5740 5739 5738 5736 5735 5734 5732 5731 5731 5730 5729
5774 5773 5774 5771 5770 5770 5768 5769 5768 5766 5765 5765 5764 5763 5766 5766 5764 5763 5762 5761 5760 5758 5756 5754 5753 5752 5750 5746 5744 5742 5741 5740 5739 5738 5737 5736 5735 5734 5733 5732 5731 5730 5729
5774 5774 5771 5772 5771 5769 5767 5766 5764 5763 5763 5764 5760 5756 5755 5757 5759 5763 5761 5759 5758 5758 5756 5755 5752 5749 5749 5748 5746 5743 5741 5740 5738 5738 5736 5735 5735 5734 5732 5732 5731 5730 5729
5774 5772 5771 5771 5770 5770 5768 5765 5764 5761 5760 5761 5760 5755 5750 5747 5752 5759 5757 5758 5755 5754 5755 5754 5752 5749 5748 5747 5745 5743 5740 5738 5737 5736 5735 5734 5734 5733 5732 5731 5730 5730 5729
5773 5772 5771 5769 5768 5769 5766 5765 5764 5762 5758 5757 5758 5757 5754 5751 5746 5748 5754 5756 5755 5753 5753 5753 5752 5750 5748 5746 5744 5741 5738 5736 5735 5734 5734 5733 5732 5731 5731 5730 5730 5729 5728
5773 5772 5770 5768 5767 5766 5764 5763 5761 5759 5758 5756 5755 5754 5752 5750 5748 5743 5743 5747 5751 5753 5753 5751 5750 5749 5748 5746 5743 5741 5737 5735 5734 5733 5732 5731 5730 5730 5729 5729 5728 5727 5726
5773 5772 5770 5767 5765 5764 5762 5760 5758 5757 5755 5753 5752 5751 5749 5747 5745 5743 5741 5741 5743 5748 5749 5749 5749 5748 5747 5745 5743 5739 5736 5734 5732 5731 5730 5729 5728 5728 5728 5727 5726 5725 5724
5772 5769 5768 5765 5763 5761 5759 5757 5755 5754 5753 5750 5749 5749 5748 5747 5746 5743 5740 5739 5740 5744 5745 5747 5748 5746 5744 5743 5740 5736 5734 5731 5730 5728 5727 5726 5726 5725 5725 5724 5723 5723 5722
5771 5768 5765 5763 5761 5759 5758 5755 5754 5752 5750 5749 5748 5746 5745 5745 5744 5741 5738 5734 5733 5738 5740 5741 5744 5743 5741 5739 5736 5732 5732 5729 5727 5725 5724 5723 5722 5722 5721 5721 5720 5720 5719
5767 5765 5762 5760 5758 5756 5754 5751 5750 5748 5747 5746 5746 5744 5742 5742 5740 5739 5738 5734 5729 5727 5731 5736 5737 5739 5736 5734 5731 5730 5730 5727 5724 5722 5721 5720 5719 5718 5718 5717 5716 5715 5715
5763 5761 5759 5757 5755 5753 5750 5748 5747 5745 5742 5741 5740 5738 5736 5738 5737 5736 5734 5732 5730 5726 5725 5732 5732 5734 5731 5730 5727 5726 5725 5722 5721 5719 5718 5716 5715 5714 5714 5713 5712 5712 5711
5758 5756 5755 5753 5751 5749 5747 5744 5743 5741 5739 5737 5736 5734 5732 5731 5731 5731 5730 5728 5726 5723 5719 5725 5727 5728 5724 5722 5721 5721 5721 5720 5720 5717 5714 5712 5711 5710 5710 5709 5708 5708 5707
5755 5753 5751 5749 5747 5745 5743 5741 5738 5737 5735 5733 5731 5729 5727 5727 5724 5724 5723 5723 5722 5720 5717 5715 5718 5719 5717 5717 5715 5714 5717 5718 5716 5713 5711 5708 5707 5706 5705 5705 5704 5704 5703
5751 5750 5747 5745 5743 5741 5739 5737 5735 5733 5731 5729 5727 5724 5723 5721 5718 5719 5717 5717 5717 5717 5714 5712 5712 5712 5712 5711 5709 5709 5711 5709 5711 5711 5707 5705 5703 5702 5701 5701 5700 5699 5698
5746 5744 5742 5740 5738 5736 5734 5732 5731 5729 5727 5725 5723 5721 5719 5716 5714 5712 5712 5710 5710 5709 5708 5707 5706 5706 5705 5704 5702 5702 5703 5705 5705 5707 5704 5702 5700 5699 5698 5697 5696 5695 5694
5741 5739 5737 5735 5733 5731 5729 5727 5725 5725 5722 5720 5718 5716 5715 5711 5708 5706 5706 5705 5703 5702 5702 5701 5700 5699 5698 5695 5695 5697 5697 5698 5699 5700 5699 5700 5699 5698 5697 5694 5691 5690 5689
5734 5732 5730 5728 5726 5725 5720 5717 5716 5717 5716 5714 5712 5711 5710 5707 5703 5699 5697 5696 5694 5694 5694 5693 5693 5691 5689 5690 5689 5689 5689 5688 5688 5694 5691 5693 5695 5694 5694 5693 5689 5686 5684
5727 5724 5722 5720 5717 5714 5711 5709 5707 5708 5709 5707 5705 5704 5704 5705 5699 5697 5693 5690 5689 5686 5684 5685 5686 5685 5684 5684 5681 5680 5679 5678 5679 5684 5683 5684 5688 5688 5690 5689 5684 5681 5679
5718 5715 5713 5712 5709 5707 5703 5701 5699 5700 5702 5701 5699 5697 5695 5694 5693 5688 5687 5687 5686 5685 5683 5681 5680 5679 5679 5677 5675 5673 5672 5671 5673 5675 5675 5675 5680 5681 5684 5683 5678 5676 5673
5710 5708 5706 5704 5702 5699 5695 5693 5690 5694 5695 5694 5693 5691 5688 5687 5682 5678 5678 5679 5678 5679 5678 5675 5673 5672 5670 5668 5667 5666 5666 5664 5665 5669 5670 5668 5671 5672 5675 5675 5674 5670 5668
5702 5701 5699 5697 5695 5692 5688 5685 5681 5687 5687 5686 5686 5685 5680 5677 5673 5670 5670 5670 5670 5670 5671 5671 5668 5666 5665 5663 5660 5659 5660 5657 5657 5659 5663 5660 5661 5661 5663 5668 5668 5666 5663